Weather in Priirtyshskiy

Russia / Tyumen Oblast     58°10′06″N   68°20′57″E
temp.,
°C
wind,
m/s
gust,
m/s
humid.,
%
clouds,
%
prec.,
mm/h
press.,
hPa
HPBL,
m
26 july, mon
mon2623:00+12nw5125524 0.1 1011250
02:00+9nw411705 0.0 1012214
05:00+9nw410785 0.0 1013247
08:00+14nnw611535 0.0 10131169
11:00+16wnw694830 0.0 10131704
14:00+16nw4749100 0.0 10131571
17:00+16w3654100 0.0 1013843
20:00+15w4862100 0.0 1013267
27 july, tue
tue2723:00+11wsw367161 0.0 101387
02:00+12wsw396792 0.0 1012202
05:00+10wsw35799 0.0 101176
08:00+16sw455861 0.0 1010372
11:00+18sw575360 0.0 10091018
14:00+20sw5751100 0.0 10071487
17:00+14nw4789100 1.0 1007312
20:00+13wsw379699 1.6 1007338
28 july, wed
wed2823:00+12sw359622 1.9 1007118
02:00+10w229621 0.0 100717
05:00+10wsw119483 0.1 100614
08:00+13nw2381100 0.1 1006360
11:00+15wnw4562100 0.6 10061261
14:00+16wnw5648100 0.1 10061799
17:00+15wnw465094 0.1 10061617
20:00+10wnw488319 0.1 1007571
29 july, thu
thu2923:00+7w359536 0.1 100893
02:00+6w349459 0.0 100862
05:00+6wsw348882 0.0 100863
08:00+11wsw356292 0.0 1008373
11:00+15sw4546100 0.0 10082114
14:00+16wsw564497 0.2 10082114
17:00+14wsw4654100 0.2 10081141
20:00+12sw2468100 0.0 100889
30 july, fri
fri3023:00+11ssw347399 0.0 100893
02:00+10ssw3678100 0.1 1007145
05:00+10s2391100 0.4 100693
08:00+11ese3489100 0.2 1006258
11:00+16sw117360 0.2 1006738
14:00+20wsw144793 0.1 10061949
17:00+20s335392 0.1 1006782
20:00+16ese487591 0.0 1006191